RH
35 34 31 29 27 23 23 21 16 13 13 19 12 41 80 82 39 30 26 31 24 23 24 20 20 21 24 27 24 22 16 12 15 15 12 13 9 8 6 6 6 5 6 6 6
24 24 21 19 20 18 22 25 22 16 13 18 16 10 71 96 76 29 38 31 29 24 21 25 23 20 15 14 16 17 14 14 17 12 14 13 10 8 8 6 7 6 7 6 6
19 15 10 8 8 13 22 26 28 21 15 15 24 12 19 81 92 50 36 34 28 29 25 20 25 21 18 14 10 10 10 11 14 13 15 14 12 11 9 9 8 8 6 6 6
12 9 12 13 14 13 14 13 24 26 19 17 26 23 11 27 89 76 37 38 34 29 29 24 18 22 19 16 11 9 8 11 15 17 16 13 12 9 10 11 9 9 7 6 7
9 16 18 26 21 16 14 19 16 29 26 22 25 29 26 10 58 98 56 32 42 33 28 27 23 17 21 22 18 12 11 14 18 18 15 14 12 12 10 11 9 10 9 8 6
21 22 53 45 17 38 32 14 18 25 29 32 33 32 57 56 30 93 94 44 36 43 32 27 26 21 18 23 20 15 15 16 18 17 16 14 12 11 11 12 11 10 9 8 7
24 57 77 30 36 84 99 66 22 19 32 34 40 37 28 88 24 72 98 63 33 47 42 33 30 25 18 17 23 18 16 17 16 17 16 15 12 8 11 11 9 8 9 7 6
30 91 87 13 46 96 100 100 90 28 36 37 41 38 28 88 16 47 99 93 69 50 58 44 32 27 24 16 16 20 20 17 16 18 17 16 8 11 10 11 8 6 6 7 7
42 96 41 15 87 100 100 76 77 32 22 39 39 37 28 39 14 37 98 98 98 93 72 57 42 30 26 21 16 15 16 16 18 18 17 13 9 12 11 10 8 6 4 6 9
60 91 23 87 100 100 100 89 38 26 15 39 39 32 29 30 20 41 79 97 100 100 88 79 51 38 28 21 17 15 15 14 14 15 13 12 8 11 11 10 8 7 6 7 9
81 83 61 74 100 99 100 100 45 20 11 36 36 37 28 80 29 36 68 100 99 74 71 82 76 42 34 31 28 21 16 13 12 12 11 11 9 9 10 9 9 8 7 8 11
100 95 66 88 100 96 100 100 72 23 11 33 32 28 46 47 100 39 71 97 93 95 57 63 72 61 38 30 28 24 19 16 16 14 11 10 8 9 9 8 8 7 7 8 10
100 100 98 91 89 80 78 82 49 14 12 30 29 41 41 46 64 35 66 91 94 99 69 47 63 94 81 50 29 20 18 20 17 15 12 11 9 9 9 8 8 7 7 8 10
82 98 100 84 88 72 74 73 16 9 18 26 31 51 96 100 87 56 92 94 96 98 96 61 34 50 84 100 86 65 39 27 23 21 17 16 13 12 10 9 8 8 9 10 10
69 58 74 82 78 72 63 20 9 12 18 22 55 94 100 47 88 46 83 99 76 94 90 53 50 48 36 93 96 63 71 71 50 32 22 16 15 14 15 15 15 15 13 12 12
30 65 49 48 62 41 11 10 13 32 57 31 39 66 48 57 52 40 74 98 71 50 87 97 84 54 52 52 51 64 59 37 24 18 15 18 15 16 15 14 14 14 14 12 12
70 47 30 19 12 6 14 80 100 99 33 33 56 58 96 58 36 41 46 72 87 43 39 74 72 34 29 25 23 26 26 21 20 18 17 19 14 15 16 13 13 14 13 12 12
76 93 96 16 6 48 99 100 100 72 100 100 100 100 79 38 32 38 56 63 81 83 54 41 47 46 44 46 31 25 24 24 23 23 21 16 13 17 24 22 17 12 10 10 9
74 57 78 42 83 99 98 100 100 94 99 90 88 79 49 19 23 42 50 52 53 48 78 75 67 49 31 32 33 33 31 39 26 18 16 15 17 26 26 21 16 14 12 11 10
80 74 48 84 83 76 100 81 88 62 81 59 50 50 23 32 33 34 44 74 41 40 35 34 35 45 48 48 47 39 34 24 19 16 17 16 22 26 19 16 13 11 11 13 13
28 65 38 56 57 44 56 71 95 79 75 59 44 34 54 40 32 43 46 58 46 40 27 28 40 49 44 36 29 24 24 22 24 22 19 18 26 21 18 17 26 32 31 29 27
21 17 42 33 28 33 27 38 62 61 62 59 57 77 61 48 54 50 52 39 33 28 33 38 37 35 28 26 26 25 24 25 28 30 25 21 31 34 30 43 37 35 36 34 19
23 23 20 66 64 47 53 41 49 28 72 75 65 65 66 50 52 65 86 46 29 27 30 32 30 30 26 26 24 25 33 40 35 26 26 24 58 52 50 45 44 46 51 27 22
22 22 23 20 28 54 60 48 46 53 54 52 60 65 54 52 62 71 42 31 30 28 29 27 27 27 26 26 31 41 40 34 26 28 26 74 78 54 51 56 61 67 52 35 23
29 27 24 25 43 40 45 38 45 56 65 64 67 54 53 59 74 72 34 28 30 29 28 28 26 25 28 37 44 42 32 26 29 27 89 74 70 74 66 60 56 50 44 41 32
32 40 27 27 25 37 48 41 46 49 50 62 74 75 74 78 92 48 30 26 28 29 28 25 26 38 45 47 37 28 27 31 34 86 82 85 79 72 64 52 54 50 49 51 46
24 30 39 46 43 39 36 32 30 27 32 33 48 70 74 93 88 55 36 30 27 29 29 42 47 48 44 35 29 32 33 44 93 86 76 75 69 62 60 67 59 52 50 54 46
Wind_Speed
49 47 48 46 48 49 49 46 42 38 40 43 41 39 50 49 59 60 55 53 53 50 49 47 46 48 51 52 52 52 51 46 40 35 33 36 38 39 37 33 33 33 30 29 30
54 54 57 58 57 56 56 57 52 46 43 46 44 43 42 49 51 58 58 59 55 51 49 48 46 46 47 47 50 52 50 45 42 36 36 39 40 40 38 38 33 30 29 29 31
64 65 69 70 70 70 68 66 60 56 48 48 48 44 43 42 54 49 60 59 58 54 51 50 50 48 46 45 47 48 48 45 39 37 37 39 42 43 41 39 31 28 28 28 30
74 78 73 68 67 66 64 71 69 61 53 53 49 45 45 44 43 48 52 58 58 56 55 51 50 50 47 45 45 45 46 43 38 38 38 42 45 44 41 36 33 28 28 28 31
82 79 69 65 60 57 59 63 68 64 58 56 52 50 48 42 39 47 44 53 58 56 55 53 50 48 49 47 45 43 44 42 39 40 41 42 43 40 37 36 38 32 32 33 35
81 70 62 58 44 34 36 44 57 64 61 58 54 53 44 45 49 44 45 41 53 53 54 54 52 49 49 50 48 47 46 45 43 43 43 42 39 38 35 38 41 35 36 38 36
77 62 56 53 30 23 23 28 40 57 63 59 54 54 50 38 45 42 46 38 43 51 52 50 51 51 49 50 51 51 49 49 46 44 44 44 41 37 36 39 42 40 39 40 39
64 56 53 38 22 16 17 16 19 45 65 59 55 53 53 39 41 42 41 40 39 46 51 52 50 51 49 50 50 52 52 50 47 46 46 48 42 41 41 40 42 43 43 40 37
58 45 45 22 13 12 12 17 18 36 64 60 54 52 51 44 39 41 38 41 39 41 45 48 50 50 50 51 49 51 52 51 48 48 49 48 45 41 44 43 43 44 42 41 40
50 39 24 7 7 10 11 12 15 26 59 58 54 50 46 40 40 41 39 41 36 34 38 43 49 49 49 51 51 50 47 46 46 48 49 48 47 42 43 43 43 44 45 45 42
44 30 19 14 8 6 7 11 8 22 54 56 52 49 45 40 36 39 39 36 34 33 35 37 38 47 47 47 47 49 50 49 47 46 47 45 46 43 40 44 44 45 47 48 46
35 25 17 16 15 11 9 6 5 23 52 56 52 45 43 38 31 37 38 37 36 33 32 32 32 34 41 45 45 46 47 47 46 45 47 44 44 42 40 42 43 45 47 46 46
24 22 18 13 9 16 9 7 8 29 56 54 47 38 41 36 35 34 31 35 35 33 28 31 31 25 26 30 36 41 42 42 42 43 46 45 45 42 39 40 40 42 44 46 44
27 25 21 9 12 19 11 7 17 48 59 52 45 38 34 35 30 35 26 34 32 32 27 27 29 28 30 27 31 33 33 36 37 38 40 40 41 32 35 36 36 37 38 40 41
36 26 16 9 12 16 6 18 36 55 58 50 45 35 33 37 33 36 29 32 30 27 29 25 26 28 30 36 33 27 26 26 27 30 34 33 39 27 28 29 30 30 33 36 39
39 32 18 9 9 5 27 44 49 52 42 48 43 36 35 32 32 32 27 24 33 30 29 27 24 24 25 27 29 27 26 27 26 25 31 24 32 32 21 24 24 24 26 31 34
56 37 30 19 20 37 57 59 23 42 43 36 35 34 31 31 33 32 26 23 31 32 34 34 27 24 22 22 22 22 22 24 25 24 23 20 25 24 13 18 22 24 29 33 36
46 51 53 29 40 57 39 30 47 52 34 40 44 39 34 29 27 30 28 23 22 28 25 22 22 21 21 22 21 21 24 23 21 18 17 18 22 18 17 20 24 29 34 37 40
46 42 33 42 53 32 27 35 30 38 30 41 39 31 31 28 25 30 28 26 25 21 23 24 24 23 23 24 23 23 22 19 17 18 18 18 18 18 20 25 29 32 34 38 41
48 39 24 28 31 27 27 26 29 23 30 35 30 29 26 25 23 26 26 24 23 24 23 21 21 20 20 19 19 19 19 18 17 18 18 16 17 20 24 27 29 33 35 37 41
36 41 24 18 21 22 13 18 20 21 24 31 24 21 20 18 20 22 21 23 22 22 22 21 18 17 18 18 19 19 17 16 15 15 16 16 16 21 21 23 25 28 31 33 37
32 28 30 18 12 11 9 5 13 15 18 19 21 21 16 17 17 20 20 20 22 20 17 18 17 18 19 16 14 13 13 13 16 16 17 20 17 18 23 25 24 21 24 28 32
27 24 18 22 16 9 10 13 11 12 17 16 17 17 15 17 20 21 19 19 16 16 17 18 18 18 15 14 13 13 14 14 16 17 15 21 19 24 21 21 21 26 27 29 28
18 21 15 12 13 20 20 16 12 12 11 9 11 13 13 16 17 19 16 18 17 17 18 17 16 15 14 14 13 14 15 16 15 16 15 16 13 19 19 15 24 21 25 27 29
14 12 13 8 10 12 13 12 10 9 7 5 5 10 12 14 14 16 13 16 16 15 16 16 15 15 14 13 13 16 17 16 15 16 8 13 19 11 12 14 20 21 24 27 28
11 7 9 8 8 7 10 12 11 10 7 6 6 7 11 13 18 15 15 16 16 16 14 16 16 14 14 14 16 16 15 14 12 10 9 9 7 6 10 16 20 25 25 29 27
11 6 4 2 3 5 7 7 6 4 4 5 4 3 6 11 18 14 15 15 17 16 16 15 14 15 16 16 16 15 14 13 12 9 8 6 5 11 15 17 18 20 25 27 25
Wind_Direction
309 303 297 288 282 277 275 269 262 259 256 245 245 243 236 230 228 226 224 226 224 223 224 223 223 225 229 231 233 234 235 234 235 234 209 218 229 234 238 233 228 230 234 238 248
309 305 299 290 280 271 264 265 261 253 250 246 238 240 242 232 227 223 225 226 225 223 225 225 224 224 228 230 233 234 235 236 236 220 207 219 227 234 235 237 235 237 242 242 242
312 306 301 293 282 269 260 255 254 250 243 242 235 236 233 244 223 222 223 224 225 223 224 225 225 224 227 230 233 234 233 232 225 212 210 219 226 230 236 241 239 242 245 247 252
315 312 307 297 285 273 261 253 249 242 235 236 231 228 234 231 231 223 223 221 223 224 224 224 226 226 225 230 233 233 231 225 214 215 215 219 227 229 235 242 245 244 246 248 250
320 317 310 301 291 280 265 252 239 236 228 228 226 220 227 222 230 224 221 220 220 222 224 225 226 226 226 227 230 229 228 224 217 219 221 224 230 235 238 244 247 243 248 248 251
322 321 316 313 302 283 269 252 237 226 221 223 220 216 210 220 217 225 217 219 219 219 222 223 224 225 225 225 227 228 227 225 223 223 226 228 229 233 237 244 250 247 244 247 249
329 322 319 317 300 281 266 256 236 219 214 217 213 211 210 216 215 221 215 213 216 218 220 221 223 224 225 226 226 228 228 229 228 229 231 234 230 232 235 242 248 249 244 243 246
329 324 321 314 301 282 266 255 247 215 207 210 208 206 205 210 211 214 214 202 211 216 218 219 220 222 224 226 226 230 231 232 233 235 236 237 229 234 237 239 248 250 249 249 250
330 330 325 313 319 309 292 253 237 214 200 204 201 202 201 206 205 206 216 205 207 209 213 219 220 222 222 225 226 229 232 233 236 239 239 239 237 234 240 239 245 252 253 250 250
339 341 344 4 21 1 354 315 226 208 195 197 194 196 196 195 201 202 210 207 208 206 210 215 220 221 222 225 228 231 237 237 239 241 241 241 241 239 243 246 247 251 253 254 248
341 350 1 355 344 332 328 324 256 199 187 188 189 194 184 190 195 197 205 201 204 207 206 214 218 220 223 227 229 232 234 238 239 242 244 245 247 247 247 246 246 249 249 249 252
336 345 349 348 345 330 314 340 242 183 175 182 184 187 183 185 184 197 202 191 199 203 204 205 214 217 221 227 230 233 236 239 243 246 247 248 247 252 252 250 249 250 253 254 254
339 335 337 326 355 355 300 297 204 173 167 175 176 180 181 184 188 191 198 186 197 203 203 206 205 216 212 221 227 232 237 241 244 246 246 247 248 251 254 254 253 254 254 255 254
349 330 322 285 318 330 320 293 164 158 159 167 170 173 176 171 183 184 193 184 192 196 196 205 205 206 196 206 215 222 229 237 242 246 249 252 249 252 256 259 257 255 257 258 259
1 353 333 297 286 323 317 144 147 152 150 161 168 174 181 179 180 183 187 189 185 197 195 200 201 203 203 212 225 226 230 239 245 247 249 252 255 242 250 254 255 252 252 253 257
19 17 16 8 357 61 128 130 134 140 150 158 171 177 181 179 181 186 185 183 184 187 191 195 192 203 204 208 218 225 233 240 244 247 249 247 255 260 246 245 250 254 255 256 258
38 38 38 54 90 119 126 124 115 144 142 161 175 171 171 175 176 180 190 187 188 187 191 199 207 212 208 214 220 224 231 237 240 238 245 239 243 255 260 246 250 256 257 257 257
33 39 46 68 113 126 111 94 118 145 138 149 160 170 175 177 174 180 188 189 187 197 201 199 203 208 212 222 223 223 225 230 236 233 235 229 241 261 276 269 261 257 259 262 264
36 54 71 113 121 103 78 106 120 148 158 158 165 175 180 178 183 179 184 191 195 194 197 202 204 208 215 216 217 216 219 222 224 225 227 233 249 272 278 275 275 274 274 275 276
37 52 114 113 106 72 96 101 110 143 167 173 179 175 178 179 178 181 183 184 189 196 195 196 201 208 214 213 209 206 207 214 222 230 242 245 264 281 273 276 278 283 284 280 275
25 34 88 124 88 74 73 74 98 135 144 166 169 171 171 176 172 180 180 183 191 194 200 201 199 199 198 197 195 197 203 219 235 249 259 262 278 274 281 275 274 274 277 280 280
21 19 64 114 94 33 46 90 122 118 143 156 161 160 163 166 175 175 179 186 193 192 189 188 188 193 195 195 203 210 219 226 242 259 270 274 284 281 271 276 275 281 285 296 300
27 17 39 66 65 69 90 105 112 152 138 140 158 170 172 174 174 181 189 192 187 185 186 192 193 201 200 206 210 215 232 244 254 267 274 273 290 270 272 273 275 296 303 310 308
19 28 21 31 32 58 69 94 93 117 138 146 163 172 176 179 179 182 188 190 192 189 190 195 200 206 209 213 219 233 246 255 261 264 264 281 281 286 279 285 295 300 308 316 311
13 31 32 20 44 70 72 68 69 88 100 142 175 185 184 184 193 187 194 195 199 197 198 203 209 213 213 221 236 251 255 257 257 261 277 280 275 288 276 303 330 320 326 330 325
334 16 8 11 8 55 91 81 73 60 55 73 121 180 188 201 190 190 188 196 201 206 206 210 214 218 225 239 248 252 254 259 262 263 265 252 262 300 326 335 330 336 331 334 332
271 288 345 329 87 97 75 80 79 56 41 29 69 140 188 200 192 197 198 199 202 204 210 213 223 234 244 245 247 249 248 246 232 232 233 247 303 331 324 318 330 340 340 340 338